Mazatlan Airport, Mexico

12:15 PM MDT on October 21, 2017 (GMT -0600)
Gen Rafael Buelna International

Weather History for MMMZ - February, 2014

Change the Weather History Date:

Tuesday, February 25, 2014

  Actual Average Record
Temperature  
Mean Temperature 70 °F -  
Max Temperature 86 °F 77 °F 86 °F (2014)
Min Temperature 55 °F 51 °F 44 °F (1997)
Cooling Degree Days 6    
Growing Degree Days 20 (Base 50)    
Moisture  
Dew Point 54 °F    
Average Humidity 60    
Maximum Humidity 87    
Minimum Humidity 33    
Precipitation  
Precipitation 0.00 in - - ()
Sea Level Pressure  
Sea Level Pressure 29.90 in    
Wind  
Wind Speed 7 mph ()    
Max Wind Speed 14 mph    
Max Gust Speed -    
Visibility 11.8 miles    
Events      
Averages and records for this station are not official NWS values.
T = Trace of Precipitation, MM = Missing Value Source: Averaged Metar Reports

Daily Weather History Graph

Daily Weather History Graph

Search for Another Location

Airport or City:

Trip Planner

Search our weather history database for the weather conditions in past years. The results will help you decide how hot, cold, wet, or windy it might be!

Date:

Astronomy

Feb. 25, 2014 Rise Set
Actual Time 6:29 AM MST 6:06 PM MST
Civil Twilight 6:07 AM MST 6:29 PM MST
Nautical Twilight 5:41 AM MST 6:55 PM MST
Astronomical Twilight 5:14 AM MST 7:21 PM MST
Moon 3:08 AM MST (2/25) 2:32 PM MST (2/25)
Length of Visible Light 12h 21m
Length of Day
11h 36m
Waning Crescent, 17% of the Moon is Illuminated
Feb 25
Waning Crescent
Mar 1
New
Mar 8
First Quarter
Mar 16
Full
Mar 23
Last Quarter

Hourly Weather History & Observations

Time (MST) Temp. Heat Index Dew Point Humidity Pressure Visibility Wind Dir Wind Speed Gust Speed Precip Events Conditions
12:41 AM 57.2 °F - 50.0 °F 77% 29.90 in 10.0 mi NNE 10.4 mph - N/A   Clear
1:42 AM 57.2 °F - 48.2 °F 72% 29.89 in 10.0 mi North 8.1 mph - N/A   Clear
2:00 AM 68 °F - 63 °F 78% 29.89 in - North 2.2 mph - -  
2:43 AM 57.2 °F - 48.2 °F 72% 29.86 in 10.0 mi NNE 6.9 mph - N/A   Mostly Cloudy
3:46 AM 55.4 °F - 48.2 °F 77% 29.86 in 10.0 mi ENE 6.9 mph - N/A   Mostly Cloudy
4:45 AM 57.2 °F - 48.2 °F 72% 29.86 in 10.0 mi NE 8.1 mph - N/A   Mostly Cloudy
5:47 AM 57.2 °F - 46.4 °F 67% 29.89 in 10.0 mi NW 9.2 mph - N/A   Mostly Cloudy
6:40 AM 57.2 °F - 46.4 °F 67% 29.92 in 10.0 mi NNE 8.1 mph - N/A   Overcast
7:49 AM 57.2 °F - 46.4 °F 67% 29.93 in 12.0 mi North 9.2 mph - N/A   Overcast
8:00 AM 68 °F - 62 °F 76% 29.94 in - Calm Calm - -  
8:46 AM 64.4 °F - 48.2 °F 56% 29.94 in 12.0 mi North 6.9 mph - N/A   Overcast
9:43 AM 75.2 °F - 51.8 °F 44% 29.96 in 12.0 mi SW 3.5 mph - N/A   Overcast
10:50 AM 75.2 °F - 53.6 °F 47% 29.96 in 14.0 mi East 6.9 mph - N/A   Overcast
11:42 AM 80.6 °F 80.3 °F 53.6 °F 39% 29.94 in 15.0 mi SSE 6.9 mph - N/A   Mostly Cloudy
12:49 PM 80.6 °F 80.8 °F 57.2 °F 45% 29.91 in 15.0 mi SW 6.9 mph - N/A   Mostly Cloudy
1:40 PM 86.0 °F 84.9 °F 57.2 °F 37% 29.87 in 15.0 mi SSW 8.1 mph - N/A   Mostly Cloudy
2:00 PM 83 °F - 64 °F 43% 29.89 in - West 6.7 mph - -  
2:42 PM 84.2 °F - 51.8 °F 33% 29.84 in 15.0 mi SW 12.7 mph - N/A   Mostly Cloudy
3:49 PM 82.4 °F 81.4 °F 53.6 °F 37% 29.82 in 15.0 mi WSW 11.5 mph - N/A   Mostly Cloudy
4:43 PM 78.8 °F - 55.4 °F 44% 29.85 in 12.0 mi WSW 13.8 mph - N/A   Mostly Cloudy
5:00 PM 79 °F - 66 °F 56% 29.86 in - West 8.9 mph - -  
5:52 PM 75.2 °F - 57.2 °F 53% 29.85 in 12.0 mi West 10.4 mph - N/A   Scattered Clouds
6:42 PM 71.6 °F - 55.4 °F 57% 29.86 in 12.0 mi West 8.1 mph - N/A   Scattered Clouds
7:43 PM 69.8 °F - 55.4 °F 60% 29.88 in 12.0 mi WNW 9.2 mph - N/A   Partly Cloudy
8:00 PM 74 °F - 67 °F 73% 29.91 in - WNW 6.7 mph - -  
8:45 PM 66.2 °F - 55.4 °F 68% 29.91 in 10.0 mi WSW 4.6 mph - N/A   Partly Cloudy
9:41 PM 62.6 °F - 51.8 °F 68% 29.92 in 10.0 mi SW 8.1 mph - N/A   Partly Cloudy
10:48 PM 60.8 °F - 50.0 °F 68% 29.93 in 10.0 mi WNW 6.9 mph - N/A   Clear
11:00 PM 69 °F - 66 °F 87% 29.94 in - NW 2.2 mph - -  
11:43 PM 59.0 °F - 50.0 °F 72% 29.92 in 10.0 mi North 4.6 mph - N/A   Clear